Location: Newark
(51.2625°N, 13.3939°E)
Time: 08:44:04
(UTC+00:00)

Transit 2A Rocket - Pass Details

Date: 26 January 2021
Orbit: 594 x 909 km, 66.7° (Epoch: 24 February)

Event Time Altitude Azimuth Distance (km) Brightness Sun altitude
Rises 18:10:46 0° 323° (NW) 2,970 8.5 -22.4°
Reaches altitude 10° 18:13:13 10° 330° (NNW) 2,018 7.5 -22.7°
Enters shadow 18:16:30 36° 7° (N) 971 5.4 -23.3°
